Weather History for KBNL - May, 2014

Change the Weather History Date:

Sunday, May 11, 2014

  Actual Average (KOGB) Record (KOGB)
Temperature  
Mean Temperature 76 °F 70 °F  
Max Temperature 87 °F 83 °F 92 °F (1963)
Min Temperature 64 °F 58 °F 41 °F (1966)
Degree Days  
Heating Degree Days 0 0  
Month to date heating degree days 10  
Since 1 July heating degree days 2327  
Cooling Degree Days 10 6  
Month to date cooling degree days 51  
Year to date cooling degree days 136  
Growing Degree Days 26 (Base 50)    
Moisture  
Dew Point 66 °F    
Average Humidity 75    
Maximum Humidity 100    
Minimum Humidity 45    
Precipitation  
Precipitation 0.01 in 0.08 in 2.14 in (2008)
Month to date precipitation 0.91  
Year to date precipitation 15.31  
Sea Level Pressure  
Sea Level Pressure 30.13 in    
Wind  
Wind Speed 3 mph (WSW)    
Max Wind Speed 9 mph    
Max Gust Speed 16 mph    
Visibility 9 miles    
Events      
T = Trace of Precipitation, MM = Missing Value Source: NWS Daily Summary

Daily Weather History Graph

Daily Weather History Graph

Search for Another Location

Airport or City:

Trip Planner

Search our weather history database for the weather conditions in past years. The results will help you decide how hot, cold, wet, or windy it might be!

Date:

Astronomy

May. 11, 2014 Rise Set
Actual Time 6:28 AM EDT 8:15 PM EDT
Civil Twilight 6:01 AM EDT 8:42 PM EDT
Nautical Twilight 5:28 AM EDT 9:15 PM EDT
Astronomical Twilight 4:54 AM EDT 9:50 PM EDT
Moon 5:19 PM EDT (5/11) 4:22 AM EDT (5/11)
Length of Visible Light 14h 41m
Length of Day
13h 46m
Waxing Gibbous, 89% of the Moon is Illuminated
May 11
Waxing Gibbous
May 14
Full
May 21
Last Quarter
May 28
New
Jun 5
First Quarter

Hourly Weather History & Observations

Time (EDT) Temp. Heat Index Dew Point Humidity Pressure Visibility Wind Dir Wind Speed Gust Speed Precip Events Conditions
12:15 AM 68.0 °F - 66.2 °F 94% 30.13 in 5.0 mi SSE 4.6 mph - 0.01 in   Mostly Cloudy
12:55 AM 68.0 °F - 66.2 °F 94% 30.12 in 10.0 mi Calm Calm - 0.01 in   Scattered Clouds
1:15 AM 68.0 °F - 66.2 °F 94% 30.12 in 7.0 mi SSE 4.6 mph - N/A   Mostly Cloudy
1:35 AM 68.0 °F - 66.2 °F 94% 30.12 in 10.0 mi Calm Calm - N/A   Overcast
2:15 AM 68.0 °F - 66.2 °F 94% 30.11 in 10.0 mi Calm Calm - N/A   Mostly Cloudy
2:55 AM 68.0 °F - 66.2 °F 94% 30.10 in 10.0 mi Calm Calm - N/A   Clear
3:15 AM 68.0 °F - 66.2 °F 94% 30.10 in 5.0 mi Calm Calm - N/A   Clear
3:35 AM 68.0 °F - 66.2 °F 94% 30.10 in 5.0 mi Calm Calm - N/A   Partly Cloudy
3:55 AM 68.0 °F - 66.2 °F 94% 30.09 in 5.0 mi South 3.5 mph - N/A   Partly Cloudy
4:15 AM 68.0 °F - 66.2 °F 94% 30.09 in 6.0 mi SSE 4.6 mph - N/A   Mostly Cloudy
4:35 AM 66.2 °F - 66.2 °F 100% 30.10 in 7.0 mi Calm Calm - N/A   Mostly Cloudy
4:55 AM 66.2 °F - 66.2 °F 100% 30.10 in 7.0 mi Calm Calm - N/A   Mostly Cloudy
5:15 AM 66.2 °F - 66.2 °F 100% 30.10 in 7.0 mi Calm Calm - N/A   Mostly Cloudy
5:35 AM 66.2 °F - 66.2 °F 100% 30.10 in 2.5 mi Calm Calm - N/A   Scattered Clouds
5:55 AM 66.2 °F - 64.4 °F 94% 30.10 in 3.0 mi Calm Calm - N/A   Scattered Clouds
6:15 AM 66.2 °F - 64.4 °F 94% 30.11 in 2.5 mi Calm Calm - N/A   Mostly Cloudy
6:35 AM 66.2 °F - 64.4 °F 94% 30.12 in 1.8 mi Calm Calm - N/A   Mostly Cloudy
6:55 AM 64.4 °F - 64.4 °F 100% 30.13 in 3.0 mi Calm Calm - N/A   Partly Cloudy
7:15 AM 66.2 °F - 66.2 °F 100% 30.13 in 3.0 mi Calm Calm - N/A   Mostly Cloudy
7:35 AM 68.0 °F - 66.2 °F 94% 30.14 in 5.0 mi SW 3.5 mph - N/A   Mostly Cloudy
7:55 AM 69.8 °F - 68.0 °F 94% 30.15 in 8.0 mi SW 3.5 mph - N/A   Mostly Cloudy
8:15 AM 69.8 °F - 68.0 °F 94% 30.15 in 9.0 mi SW 3.5 mph - N/A   Overcast
8:35 AM 69.8 °F - 68.0 °F 94% 30.16 in 10.0 mi SSW 4.6 mph - N/A   Overcast
8:55 AM 71.6 °F - 69.8 °F 94% 30.16 in 10.0 mi WSW 4.6 mph - N/A   Overcast
9:15 AM 73.4 °F - 69.8 °F 88% 30.17 in 10.0 mi WSW 5.8 mph - N/A   Mostly Cloudy
9:35 AM 73.4 °F - 69.8 °F 88% 30.17 in 10.0 mi WSW 6.9 mph - N/A   Overcast
9:55 AM 73.4 °F - 69.8 °F 88% 30.17 in 10.0 mi WSW 4.6 mph - N/A   Mostly Cloudy
10:15 AM 75.2 °F - 69.8 °F 83% 30.17 in 10.0 mi Calm Calm - N/A   Mostly Cloudy
10:35 AM 75.2 °F - 69.8 °F 83% 30.17 in 10.0 mi WSW 4.6 mph - N/A   Mostly Cloudy
10:55 AM 77.0 °F - 69.8 °F 78% 30.17 in 10.0 mi West 5.8 mph - N/A   Mostly Cloudy
11:15 AM 78.8 °F - 69.8 °F 74% 30.17 in 10.0 mi West 8.1 mph - N/A   Scattered Clouds
11:35 AM 78.8 °F - 69.8 °F 74% 30.17 in 10.0 mi West 5.8 mph - N/A   Mostly Cloudy
11:55 AM 78.8 °F - 68.0 °F 69% 30.18 in 10.0 mi WNW 5.8 mph - N/A   Mostly Cloudy
12:15 PM 80.6 °F 82.7 °F 66.2 °F 61% 30.17 in 10.0 mi NNW 3.5 mph - N/A   Scattered Clouds
12:35 PM 82.4 °F 84.6 °F 66.2 °F 58% 30.17 in 10.0 mi West 6.9 mph - N/A   Scattered Clouds
12:55 PM 80.6 °F 82.7 °F 66.2 °F 61% 30.16 in 10.0 mi WNW 5.8 mph - N/A   Scattered Clouds
1:15 PM 84.2 °F 86.6 °F 66.2 °F 55% 30.16 in 10.0 mi WSW 5.8 mph - N/A   Mostly Cloudy
1:35 PM 84.2 °F 86.6 °F 66.2 °F 55% 30.16 in 10.0 mi WSW 9.2 mph - N/A   Scattered Clouds
1:55 PM 84.2 °F 85.6 °F 64.4 °F 51% 30.15 in 10.0 mi SW 9.2 mph - N/A   Partly Cloudy
2:15 PM 84.2 °F 85.6 °F 64.4 °F 51% 30.15 in 10.0 mi West 5.8 mph - N/A   Partly Cloudy
2:35 PM 86.0 °F 87.3 °F 64.4 °F 48% 30.14 in 10.0 mi SW 6.9 mph - N/A   Partly Cloudy
2:55 PM 84.2 °F 85.6 °F 64.4 °F 51% 30.13 in 10.0 mi WNW 4.6 mph - N/A   Mostly Cloudy
3:15 PM 84.2 °F 85.6 °F 64.4 °F 51% 30.12 in 10.0 mi WNW 4.6 mph - N/A   Scattered Clouds
3:35 PM 87.8 °F 89.4 °F 64.4 °F 46% 30.11 in 10.0 mi NW 9.2 mph - N/A   Clear
3:55 PM 87.8 °F 90.4 °F 66.2 °F 49% 30.10 in 10.0 mi West 4.6 mph - N/A   Clear
4:15 PM 87.8 °F 89.4 °F 64.4 °F 46% 30.10 in 10.0 mi West 4.6 mph - N/A   Partly Cloudy
4:35 PM 87.8 °F 89.4 °F 64.4 °F 46% 30.09 in 10.0 mi West 6.9 mph 16.1 mph N/A   Partly Cloudy
4:55 PM 87.8 °F 89.4 °F 64.4 °F 46% 30.09 in 10.0 mi WNW 5.8 mph - N/A   Clear
5:15 PM 87.8 °F 89.4 °F 64.4 °F 46% 30.08 in 10.0 mi WSW 3.5 mph - N/A   Scattered Clouds
5:35 PM 87.8 °F 89.4 °F 64.4 °F 46% 30.08 in 10.0 mi WNW 6.9 mph - N/A   Partly Cloudy
5:55 PM 87.8 °F 89.4 °F 64.4 °F 46% 30.08 in 10.0 mi WNW 5.8 mph - N/A   Clear
6:15 PM 86.0 °F 87.3 °F 64.4 °F 48% 30.08 in 10.0 mi West 3.5 mph - N/A   Clear
6:35 PM 86.0 °F 86.6 °F 62.6 °F 45% 30.08 in 10.0 mi West 4.6 mph - N/A   Clear
6:55 PM 86.0 °F 87.3 °F 64.4 °F 48% 30.09 in 10.0 mi Calm Calm - N/A   Clear
7:15 PM 84.2 °F 85.6 °F 64.4 °F 51% 30.09 in 10.0 mi West 3.5 mph - N/A   Clear
7:35 PM 84.2 °F 85.6 °F 64.4 °F 51% 30.09 in 10.0 mi Calm Calm - N/A   Clear
7:55 PM 82.4 °F 84.6 °F 66.2 °F 58% 30.09 in 10.0 mi Calm Calm - N/A   Clear
8:15 PM 80.6 °F 82.7 °F 66.2 °F 61% 30.10 in 10.0 mi Calm Calm - N/A   Clear
8:35 PM 78.8 °F - 66.2 °F 65% 30.11 in 10.0 mi Calm Calm - N/A   Clear
8:55 PM 75.2 °F - 66.2 °F 73% 30.12 in 10.0 mi Calm Calm - N/A   Clear
9:15 PM 73.4 °F - 66.2 °F 78% 30.12 in 10.0 mi Calm Calm - N/A   Clear
9:35 PM 73.4 °F - 66.2 °F 78% 30.13 in 10.0 mi Calm Calm - N/A   Clear
9:55 PM 73.4 °F - 66.2 °F 78% 30.13 in 10.0 mi Calm Calm - N/A   Clear
10:15 PM 71.6 °F - 66.2 °F 83% 30.14 in 10.0 mi Calm Calm - N/A   Clear
10:35 PM 71.6 °F - 66.2 °F 83% 30.15 in 10.0 mi Calm Calm - N/A   Clear
10:55 PM 69.8 °F - 66.2 °F 88% 30.15 in 10.0 mi Calm Calm - N/A   Clear
11:15 PM 69.8 °F - 66.2 °F 88% 30.15 in 10.0 mi Calm Calm - N/A   Clear
11:35 PM 69.8 °F - 66.2 °F 88% 30.15 in 10.0 mi Calm Calm - N/A   Clear
11:55 PM 69.8 °F - 66.2 °F 88% 30.16 in 10.0 mi Calm Calm - N/A   Clear